[[{"header":{"parameterUnit":"m.s-1","parameterCategory":1,"la1":30.2991,"la2":30.254,"lo1":-89.0895,"lo2":-89.0444,"dy":0.0017,"dx":0.0017,"nx":28,"ny":28,"refTime":"2024-10-10T09:00:00:Z","depth":0,"parameterNumber":2,"parameterNumberName":"U-component_of_WINDS"},"data":[0,0,0,0,0,0,0,0,0,0,0,0,0,0,0,0,0,0,0,0,0,0,0,0,0,0,0,0,0,0,0,0,0,0,0,0,0,0,0,0,0,0,0,0,0,0,0,0,0,0,0,0,0,0,0,0,0,0,0.8348,0.8348,0,0.8324,0.8324,0.8323,0.829,0.8289,0.8289,0.8288,0.8263,0.8263,0.8263,0,0,0,0,0,0,0,0,0,0,0,0,0,0.8365,0.8365,0.8348,0.8348,0.8347,0.8324,0.8324,0.8323,0.829,0.8289,0.8289,0.8288,0.8263,0.8263,0.8263,0,0,0,0,0,0,0,0,0,0,0,0,0,0.8351,0.8365,0.8348,0.8328,0.8326,0.8324,0.8323,0.8323,0.829,0.8289,0.8289,0.8288,0.8264,0.8263,0.8263,0.8279,0,0,0.8263,0.8262,0,0,0,0,0,0,0,0,0.8352,0.8351,0.8331,0.8329,0.8327,0.8309,0.8321,0.8308,0.829,0.8304,0.8288,0.8287,0.8279,0.8278,0.8275,0.8278,0.8276,0.8262,0.8262,0.8262,0.8262,0,0,0,0,0,0,0,0.8353,0.8352,0.8338,0.8331,0.8328,0.832,0.8317,0.8318,0.8297,0.8303,0.83,0.8298,0.8278,0.8275,0.8274,0.8276,0.8262,0.8262,0.8262,0.8262,0.8291,0.8291,0,0,0,0,0,0,0.8357,0.8353,0.8339,0.8338,0.8338,0.8321,0.8317,0.8316,0.8296,0.8293,0.8298,0.8296,0.8276,0.8275,0.8273,0.829,0.8262,0.8262,0.8262,0.829,0.8291,0.8292,0,0,0,0,0,0,0.8358,0.8356,0.834,0.8344,0.8342,0.8321,0.832,0.8316,0.8313,0.8293,0.8289,0.83,0.8275,0.8274,0.8278,0.8289,0.8262,0.8262,0.8289,0.829,0.8291,0.8324,0,0,0,0,0,0,0.8358,0.8357,0.8362,0.8345,0.8342,0.8345,0.832,0.8316,0.8313,0.831,0.8293,0.829,0.8275,0.8278,0.8277,0.8288,0.8262,0.8288,0.8289,0.8291,0.8322,0.8327,0.833,0,0,0,0,0,0.8359,0.8372,0.8363,0.8361,0.8348,0.8346,0.8344,0.8326,0.8314,0.8319,0.8307,0.829,0.8288,0.8279,0.8278,0.8289,0.8287,0.8289,0.8291,0.832,0.8326,0.833,0,0,0,0,0,0,0.8391,0.837,0.8359,0.8367,0.8358,0.834,0.8346,0.8332,0.8327,0.8324,0.8302,0.8299,0.8306,0.8298,0.8288,0.8303,0.8285,0.8287,0.8308,0.8313,0.8317,0.8319,0.8261,0,0,0,0,0,0.8399,0.8399,0.838,0.8389,0.8386,0.8367,0.8365,0.8352,0.8342,0.8339,0.8326,0.8318,0.8315,0.8313,0.831,0.8321,0.8317,0.8328,0.8332,0.8336,0.8337,0.8343,0.8348,0.8298,0.8298,0.8298,0,0,0.8416,0.8404,0.8405,0.8395,0.8387,0.8388,0.8364,0.8365,0.8365,0.8339,0.8342,0.8333,0.8322,0.833,0.8332,0.8323,0.835,0.8338,0.8341,0.8341,0.8345,0.835,0.8354,0.83,0.8299,0.8299,0,0,0.8446,0.8437,0.8444,0.8436,0.8425,0.8412,0.8414,0.8398,0.8391,0.8394,0.8374,0.8374,0.837,0.8363,0.8359,0.8387,0.8372,0.8387,0.8408,0.8414,0.8418,0.8421,0.8431,0.8435,0.8389,0.8389,0.8389,0,0.8468,0.8468,0.8449,0.8451,0.8448,0.8425,0.8431,0.8425,0.8413,0.8411,0.84,0.8395,0.8386,0.8392,0.8399,0.8396,0.8397,0.8388,0.8419,0.8422,0.8425,0.8434,0.8438,0.8391,0.8391,0.839,0.839,0,0.8495,0.8495,0.8502,0.8491,0.8488,0.8493,0.8475,0.8475,0.8462,0.8451,0.8455,0.8443,0.8437,0.8437,0.8425,0.8442,0.8436,0.8423,0.8404,0.8432,0.844,0.8444,0.8393,0.8393,0.8392,0.8392,0,0,0.8544,0.8523,0.8526,0.8521,0.8507,0.8507,0.8511,0.8505,0.8505,0.8497,0.85,0.8497,0.8485,0.848,0.8467,0.8472,0.8496,0.8458,0.8458,0.8465,0.8514,0.8524,0.8528,0.8486,0.8487,0.8487,0.8514,0,0.8571,0.8577,0.856,0.857,0.857,0.8548,0.8551,0.8543,0.8533,0.8532,0.8521,0.8519,0.8503,0.85,0.8504,0.8492,0.8505,0.849,0.8488,0.8488,0.8491,0.8532,0.8543,0.8569,0.8518,0.8518,0.8519,0,0.8603,0.8598,0.8608,0.8593,0.8593,0.8596,0.859,0.8589,0.8579,0.8572,0.8567,0.8552,0.8555,0.8538,0.8542,0.8532,0.853,0.8524,0.8525,0.8524,0.8505,0.8532,0.8577,0.8581,0.8524,0.8523,0.8523,0,0.8638,0.8633,0.8638,0.8635,0.8618,0.8621,0.8614,0.8604,0.8602,0.8596,0.8595,0.859,0.8587,0.8584,0.8568,0.8557,0.8574,0.8555,0.8567,0.8568,0.8571,0.8571,0.8616,0.8571,0.8571,0.8571,0.8571,0,0.867,0.8676,0.8654,0.8657,0.8664,0.8645,0.8653,0.8644,0.8635,0.8636,0.8617,0.8619,0.8598,0.8597,0.8585,0.859,0.8589,0.8583,0.858,0.8584,0.8585,0.8583,0.858,0.8572,0.8572,0.8571,0.8571,0,0.8709,0.8694,0.8698,0.8683,0.8679,0.8685,0.8671,0.8674,0.8663,0.8665,0.8664,0.8647,0.8645,0.8629,0.8624,0.8616,0.8626,0.8619,0.8629,0.8626,0.8639,0.8638,0.8684,0.8689,0.8641,0.8642,0.8642,0,0.873,0.8735,0.872,0.8719,0.8714,0.8713,0.8711,0.8693,0.8691,0.8681,0.8685,0.8682,0.8678,0.8677,0.8664,0.866,0.8652,0.8669,0.8652,0.8657,0.8652,0.8652,0.8652,0.8672,0.8673,0.8673,0.8674,0,0.8769,0.8761,0.8759,0.8754,0.8752,0.8747,0.8741,0.8742,0.8722,0.8722,0.872,0.8717,0.8712,0.8709,0.8703,0.8696,0.8682,0.8679,0.8682,0.8687,0.8692,0.8689,0.8638,0.8678,0.8678,0.8677,0.8677,0.8677,0.8799,0.8803,0.8793,0.8791,0.8785,0.878,0.8781,0.8771,0.8769,0.8763,0.8753,0.8753,0.8744,0.8734,0.8729,0.8728,0.872,0.8724,0.8724,0.8725,0.8728,0.8693,0.8727,0.8727,0.8727,0.8727,0.8727,0,0.8837,0.883,0.8828,0.8821,0.8819,0.8806,0.8799,0.8799,0.8799,0.8792,0.8789,0.8787,0.8784,0.8772,0.8768,0.877,0.8763,0.8769,0.8769,0.8767,0.8736,0.8734,0.8775,0.8775,0.8775,0.8775,0.8775,0.8775,0.8856,0.8861,0.8853,0.8854,0.8847,0.8847,0.8844,0.884,0.8834,0.8832,0.883,0.8822,0.8813,0.8808,0.8805,0.8802,0.8801,0.8809,0.8803,0.8774,0.8769,0.8765,0.8763,0.8809,0.8809,0.8835,0.8835,0.8835]},{"header":{"parameterUnit":"m.s-1","parameterCategory":1,"la1":30.2991,"la2":30.254,"lo1":-89.0895,"lo2":-89.0444,"dy":0.0017,"dx":0.0017,"nx":28,"ny":28,"refTime":"2024-10-10T09:00:00:Z","depth":0,"parameterNumber":3,"parameterNumberName":"V-component_of_WINDS"},"data":[0,0,0,0,0,0,0,0,0,0,0,0,0,0,0,0,0,0,0,0,0,0,0,0,0,0,0,0,0,0,0,0,0,0,0,0,0,0,0,0,0,0,0,0,0,0,0,0,0,0,0,0,0,0,0,0,0,0,-4.3254,-4.3255,0,-4.3338,-4.3339,-4.334,-4.3312,-4.331,-4.3308,-4.3306,-4.3388,-4.3391,-4.3395,0,0,0,0,0,0,0,0,0,0,0,0,0,-4.3064,-4.3068,-4.3254,-4.3255,-4.3256,-4.3338,-4.3339,-4.334,-4.3312,-4.331,-4.3307,-4.3305,-4.3386,-4.3391,-4.3396,0,0,0,0,0,0,0,0,0,0,0,0,0,-4.3147,-4.3069,-4.3253,-4.3252,-4.3252,-4.3338,-4.3339,-4.334,-4.3312,-4.331,-4.3307,-4.3304,-4.3385,-4.3391,-4.3396,-4.3487,0,0,-4.3414,-4.3417,0,0,0,0,0,0,0,0,-4.3143,-4.3154,-4.3251,-4.3252,-4.3253,-4.3312,-4.3302,-4.3389,-4.3313,-4.3289,-4.3306,-4.3303,-4.3364,-4.3372,-4.3393,-4.3491,-4.3494,-4.3415,-4.3418,-4.3421,-4.3422,0,0,0,0,0,0,0,-4.3137,-4.315,-4.3287,-4.3252,-4.3254,-4.3245,-4.3254,-4.3318,-4.3341,-4.3291,-4.3289,-4.33,-4.3364,-4.3388,-4.3395,-4.3495,-4.3414,-4.342,-4.3423,-4.3425,-4.3672,-4.3675,0,0,0,0,0,0,-4.3131,-4.3146,-4.3284,-4.3289,-4.319,-4.3251,-4.3261,-4.3295,-4.334,-4.3345,-4.3302,-4.3298,-4.3379,-4.3388,-4.3398,-4.3507,-4.342,-4.3426,-4.3429,-4.3669,-4.3672,-4.3676,0,0,0,0,0,0,-4.3127,-4.3144,-4.3281,-4.3217,-4.3234,-4.3257,-4.3296,-4.3298,-4.3322,-4.3349,-4.3352,-4.3323,-4.3377,-4.339,-4.3465,-4.351,-4.3429,-4.3434,-4.3665,-4.367,-4.3674,-4.3727,0,0,0,0,0,0,-4.3122,-4.3143,-4.3178,-4.3218,-4.3238,-4.3348,-4.3299,-4.3302,-4.3333,-4.3328,-4.3368,-4.3372,-4.3376,-4.3457,-4.3471,-4.3516,-4.3438,-4.3661,-4.3667,-4.3673,-4.3721,-4.3733,-4.3743,0,0,0,0,0,-4.3115,-4.3188,-4.318,-4.3197,-4.3283,-4.3351,-4.3362,-4.3366,-4.3336,-4.3372,-4.3389,-4.3371,-4.3503,-4.3465,-4.3481,-4.3528,-4.3658,-4.3666,-4.3672,-4.3717,-4.3731,-4.3742,0,0,0,0,0,0,-4.3151,-4.3193,-4.3185,-4.3273,-4.3309,-4.3346,-4.3391,-4.3381,-4.3424,-4.3418,-4.342,-4.3429,-4.3507,-4.3525,-4.3482,-4.3619,-4.3576,-4.3586,-4.3604,-4.3618,-4.3628,-4.3622,-4.3443,0,0,0,0,0,-4.3169,-4.3222,-4.3256,-4.3331,-4.335,-4.3367,-4.3397,-4.3398,-4.3434,-4.3448,-4.3471,-4.3506,-4.3555,-4.3587,-4.3634,-4.3724,-4.3732,-4.3764,-4.3775,-4.3783,-4.3792,-4.3842,-4.3857,-4.3698,-4.3698,-4.3698,0,0,-4.3207,-4.3237,-4.327,-4.3339,-4.3367,-4.3421,-4.338,-4.3439,-4.3479,-4.3457,-4.3531,-4.3548,-4.3587,-4.3671,-4.3709,-4.3688,-4.3838,-4.3792,-4.3799,-4.3803,-4.3851,-4.3866,-4.3879,-4.3703,-4.3702,-4.3702,0,0,-4.3304,-4.3332,-4.3398,-4.3427,-4.3471,-4.3482,-4.3498,-4.3537,-4.3549,-4.3624,-4.3608,-4.3655,-4.374,-4.3768,-4.3794,-4.3903,-4.3889,-4.3918,-4.3974,-4.4022,-4.4035,-4.4046,-4.4085,-4.41,-4.3927,-4.3927,-4.3927,0,-4.3345,-4.3428,-4.3433,-4.3494,-4.3525,-4.3509,-4.3576,-4.3603,-4.3658,-4.3679,-4.3656,-4.3763,-4.3787,-4.3878,-4.3905,-4.3926,-4.3944,-4.3914,-4.4033,-4.4044,-4.4054,-4.4092,-4.4107,-4.3931,-4.393,-4.393,-4.393,0,-4.3477,-4.3535,-4.3582,-4.3639,-4.3675,-4.3738,-4.3752,-4.3787,-4.3785,-4.3798,-4.3874,-4.3904,-4.3957,-4.3978,-4.3975,-4.4069,-4.4055,-4.4032,-4.3989,-4.4073,-4.4108,-4.4123,-4.3935,-4.3934,-4.3933,-4.3932,0,0,-4.3598,-4.3658,-4.3676,-4.3702,-4.3749,-4.3792,-4.3855,-4.3908,-4.3939,-4.3978,-4.403,-4.4103,-4.4083,-4.4112,-4.4112,-4.4154,-4.424,-4.4126,-4.4127,-4.4147,-4.4345,-4.4363,-4.4379,-4.4231,-4.4233,-4.4236,-4.4342,0,-4.37,-4.3812,-4.3818,-4.3919,-4.3972,-4.3959,-4.4013,-4.4047,-4.4062,-4.4108,-4.4123,-4.4175,-4.4144,-4.4162,-4.4204,-4.4221,-4.428,-4.4213,-4.4278,-4.4281,-4.427,-4.4398,-4.4416,-4.4516,-4.4356,-4.4359,-4.436,0,-4.3833,-4.3879,-4.3986,-4.4027,-4.4049,-4.4098,-4.4148,-4.4193,-4.4231,-4.4239,-4.4272,-4.4267,-4.433,-4.4285,-4.4372,-4.4326,-4.4353,-4.4366,-4.437,-4.4376,-4.4326,-4.4408,-4.4547,-4.4562,-4.4382,-4.438,-4.4379,0,-4.3912,-4.3999,-4.4075,-4.4098,-4.4147,-4.4182,-4.4204,-4.4239,-4.4272,-4.4315,-4.4336,-4.4385,-4.4412,-4.445,-4.4458,-4.4424,-4.4545,-4.45,-4.4552,-4.4552,-4.4578,-4.4577,-4.4724,-4.4595,-4.4595,-4.4595,-4.4594,0,-4.4025,-4.4091,-4.4112,-4.4158,-4.4231,-4.4238,-4.431,-4.4329,-4.4362,-4.4411,-4.4401,-4.4447,-4.4454,-4.4502,-4.4508,-4.4579,-4.4591,-4.4599,-4.4599,-4.46,-4.4599,-4.4618,-4.4611,-4.4599,-4.4598,-4.4597,-4.4596,0,-4.4125,-4.4142,-4.4223,-4.4264,-4.4276,-4.4328,-4.4362,-4.4407,-4.4421,-4.4483,-4.4498,-4.4519,-4.4575,-4.4587,-4.4652,-4.4656,-4.4741,-4.4734,-4.4729,-4.4728,-4.478,-4.4775,-4.4945,-4.4968,-4.4823,-4.4825,-4.4826,0,-4.4196,-4.4247,-4.4294,-4.4328,-4.4352,-4.4405,-4.4439,-4.4447,-4.4482,-4.453,-4.4569,-4.4624,-4.4668,-4.4757,-4.4778,-4.4828,-4.4823,-4.4879,-4.483,-4.4829,-4.4825,-4.4822,-4.4827,-4.4888,-4.489,-4.4891,-4.4892,0,-4.4322,-4.4328,-4.4377,-4.4431,-4.4471,-4.4513,-4.4552,-4.458,-4.4593,-4.4633,-4.4691,-4.4726,-4.4793,-4.4848,-4.4898,-4.4919,-4.4908,-4.4908,-4.4922,-4.4924,-4.4919,-4.4923,-4.4755,-4.4904,-4.4902,-4.4902,-4.4901,-4.4901,-4.441,-4.4455,-4.4496,-4.4552,-4.4583,-4.462,-4.4664,-4.4685,-4.4734,-4.4791,-4.4792,-4.4856,-4.4893,-4.496,-4.4984,-4.5033,-4.5015,-4.5036,-4.5042,-4.5047,-4.5052,-4.4911,-4.5042,-4.5041,-4.5041,-4.5041,-4.5041,0,-4.4535,-4.4561,-4.4613,-4.467,-4.4713,-4.4701,-4.4744,-4.4782,-4.4838,-4.4875,-4.492,-4.4986,-4.504,-4.5065,-4.5117,-4.5152,-4.5148,-4.5165,-4.5163,-4.5168,-4.5065,-4.5047,-4.5167,-4.5167,-4.5167,-4.5167,-4.5167,-4.5167,-4.4605,-4.4682,-4.4693,-4.4784,-4.4809,-4.4873,-4.4899,-4.4933,-4.4963,-4.5038,-4.5083,-4.51,-4.5132,-4.5187,-4.5235,-4.5241,-4.5261,-4.5281,-4.5285,-4.5188,-4.5175,-4.5163,-4.5146,-4.5285,-4.5285,-4.5384,-4.5385,-4.5385]}]]